Theta_e
340 338 336 330 328 331 334 334 334 334 334 332 331 329 327 323 320 319 320 320 319 318 318 318 317 316 314 314 313 313 312 313 312 312 311 310 310 308 308 308 308 308 308
337 335 333 328 331 332 333 332 331 331 330 328 325 322 320 321 321 320 319 318 317 316 316 315 313 313 314 313 314 314 314 313 311 310 308 307 309 309 308 307 307 307 305
335 333 331 329 332 332 331 328 327 324 322 321 322 322 321 321 320 319 318 316 315 315 315 314 314 314 314 313 312 311 310 310 309 309 308 307 306 305 305 304 304 304 304
335 334 331 332 332 330 327 325 324 323 322 321 323 321 320 319 318 317 316 316 316 315 315 315 314 313 311 310 308 307 307 307 307 306 304 303 303 303 303 304 304 303 303
334 334 332 333 330 328 326 324 324 321 322 322 322 321 319 318 315 310 313 315 315 314 314 312 310 308 305 305 304 304 303 302 301 300 300 300 301 301 302 303 303 302 303
332 333 332 331 328 327 325 324 321 320 321 322 321 320 318 311 310 311 311 312 312 311 310 310 308 306 304 302 301 300 299 298 298 298 298 299 299 300 300 300 302 303 301
332 333 332 332 328 326 325 324 324 322 321 320 320 316 311 311 310 310 310 309 310 309 307 304 303 301 299 298 297 297 298 298 297 297 297 298 298 298 299 299 300 300 301
330 332 331 331 328 326 325 325 323 322 320 319 314 312 311 311 311 309 307 307 308 306 303 301 299 298 298 296 296 297 296 297 297 297 297 296 297 297 298 298 299 300 300
325 330 331 328 328 325 324 326 323 321 316 313 312 311 310 309 307 306 306 306 305 303 299 299 298 298 297 296 296 296 295 296 296 296 296 297 297 298 298 299 299 300 301
323 329 330 329 327 326 325 323 319 314 312 313 311 310 307 306 305 304 305 303 302 300 300 299 298 296 296 295 294 295 294 296 296 297 297 298 298 299 300 300 300 300 300
325 330 329 328 327 323 321 315 314 314 312 311 310 308 306 303 301 301 299 298 297 297 297 296 296 296 296 295 294 294 293 295 297 298 298 298 299 299 300 300 300 300 301
326 328 325 324 321 316 312 311 312 313 311 311 310 309 306 302 299 297 297 296 296 296 297 296 295 295 295 295 294 293 294 297 298 298 298 298 299 299 299 299 300 300 300
323 323 320 320 316 312 311 311 310 310 309 309 307 307 304 301 298 297 296 296 296 296 296 295 294 294 294 294 293 294 295 297 297 297 298 298 300 301 301 302 302 302 303
323 320 319 319 317 311 310 308 307 308 308 307 306 304 301 298 296 295 296 295 295 295 296 295 293 293 294 293 294 294 294 296 297 297 298 300 301 303 303 303 304 303 303
319 317 316 315 311 312 308 306 306 305 306 304 302 299 298 297 295 295 295 295 295 294 294 294 293 293 294 294 294 294 295 296 296 297 300 302 303 304 304 304 303 303 303
317 315 314 313 310 306 306 306 304 305 306 304 301 298 296 295 295 295 295 295 295 295 294 295 294 294 294 294 294 294 295 296 298 300 302 303 304 305 304 303 304 303 303
314 311 311 310 306 307 309 308 304 304 302 300 298 296 296 295 296 295 295 295 296 296 296 295 296 297 297 297 297 298 299 300 301 302 302 303 305 304 303 303 302 302 302
312 311 309 307 307 309 308 307 307 304 300 297 297 297 297 297 296 296 296 297 296 296 296 297 297 297 298 298 299 300 301 301 302 302 303 304 305 304 303 302 302 302 302
311 309 306 307 308 307 306 307 305 301 301 298 298 298 298 298 299 298 298 298 299 299 299 299 299 299 299 301 300 300 301 301 301 303 305 304 304 304 304 303 302 302 302
308 307 308 308 307 306 307 306 301 301 299 298 298 298 298 299 299 300 299 300 300 300 300 300 300 301 302 303 303 304 303 304 304 305 305 305 304 304 304 303 303 303 302
307 307 307 306 306 307 305 303 301 300 298 299 298 299 299 300 301 301 300 301 301 301 301 302 302 303 304 304 305 305 305 305 304 305 305 305 305 305 304 304 303 303 302
308 308 306 306 306 305 303 300 301 299 298 299 298 298 300 301 301 301 301 301 301 301 302 302 303 304 305 305 305 305 305 305 305 305 305 305 305 304 304 304 304 303 303
307 306 306 305 305 302 300 301 300 299 298 298 298 299 299 302 302 302 302 303 301 301 302 302 304 304 306 306 305 305 305 305 305 305 305 304 304 304 304 304 305 304 303
306 306 306 305 304 302 300 300 300 299 298 297 298 299 300 301 302 302 302 302 302 301 302 302 305 306 306 305 305 305 304 305 306 306 306 306 306 307 307 305 305 305 304
305 306 305 303 302 301 299 300 300 299 298 298 299 299 301 302 302 303 303 303 303 302 302 303 304 306 305 305 305 305 305 305 305 306 307 306 307 306 305 307 306 306 305
305 305 303 301 301 301 300 301 300 299 298 298 298 299 301 302 303 303 303 303 304 304 303 303 303 305 306 305 305 306 307 307 306 306 306 306 307 307 306 305 306 306 306
Wind_Speed
8 12 13 15 14 11 12 15 14 12 8 1 6 7 6 6 7 6 6 7 10 11 13 14 15 17 18 20 22 23 26 25 28 26 25 27 26 39 31 28 26 23 23
12 14 14 8 8 10 9 9 9 7 5 4 3 3 1 2 5 5 6 8 10 11 12 13 15 17 19 23 24 24 24 25 36 39 34 35 25 26 31 35 32 31 33
17 16 9 7 9 9 8 6 7 6 8 7 4 1 1 3 5 8 9 8 9 11 14 16 18 20 21 21 23 24 25 22 25 24 23 22 35 33 29 26 25 21 20
14 15 8 8 8 7 6 4 4 5 5 5 3 1 2 5 7 8 9 11 13 15 16 17 17 17 17 18 20 21 20 24 26 30 35 33 28 24 22 21 17 14 13
20 14 10 8 6 5 2 2 2 3 2 4 2 1 3 5 8 9 10 13 15 15 13 12 13 20 25 27 28 28 28 29 27 24 22 19 16 17 17 17 13 13 12
19 15 9 9 4 4 1 3 3 3 2 1 0 2 3 9 10 12 14 11 11 13 13 13 15 18 18 25 24 19 14 14 13 16 18 17 16 15 15 7 11 7 9
18 13 9 12 7 5 3 4 4 2 1 2 1 3 7 11 13 16 16 12 13 13 13 15 15 13 18 19 18 16 14 13 15 15 15 14 15 14 14 14 16 15 13
19 15 11 11 9 6 6 6 4 1 2 0 2 4 8 13 14 15 16 14 13 14 15 13 11 11 14 16 17 15 12 11 11 11 13 15 16 16 15 14 13 12 10
20 18 13 11 11 8 7 7 4 3 2 2 3 5 4 14 14 18 21 12 11 11 12 11 10 11 16 16 15 13 12 11 11 12 14 11 10 8 7 8 7 6 5
23 18 13 13 13 12 11 6 3 2 1 1 4 6 7 9 19 22 21 11 11 10 8 9 15 16 17 14 12 13 13 12 11 9 5 6 5 3 3 1 4 4 3
22 15 13 13 12 9 7 2 1 2 2 2 3 4 7 15 17 19 15 12 11 11 9 11 13 17 14 12 11 12 11 11 7 7 7 8 7 3 2 2 3 5 6
18 16 12 5 2 8 10 5 4 2 5 5 5 6 8 10 16 14 13 15 14 12 12 13 14 14 11 10 9 10 7 8 7 9 9 9 8 5 4 4 5 5 4
15 12 3 5 2 8 7 4 6 7 6 7 8 8 8 9 11 16 16 16 14 12 11 11 12 11 10 9 9 7 7 8 9 10 10 9 10 8 7 6 2 1 2
10 2 3 6 4 8 5 4 3 5 7 8 8 9 8 10 14 15 13 15 14 13 10 10 11 10 11 11 12 8 5 7 10 10 9 9 9 10 11 11 11 11 10
4 1 1 4 6 4 7 6 5 10 9 8 10 9 10 11 14 15 15 14 13 11 12 14 14 16 15 14 11 9 7 7 8 9 9 12 11 12 12 11 12 12 13
1 7 8 6 6 8 5 6 9 10 10 13 15 12 11 13 12 11 10 14 15 16 18 18 19 18 17 15 12 10 9 10 8 11 13 15 15 13 14 12 12 15 19
6 7 6 6 6 6 5 4 7 10 13 16 16 18 18 15 10 10 12 18 19 19 20 21 21 20 19 19 17 16 15 13 12 14 14 16 15 14 12 14 16 15 17
7 6 8 10 9 4 5 6 6 6 7 11 18 19 18 18 17 16 19 15 17 21 21 21 18 17 17 15 15 15 14 12 12 13 12 14 14 12 15 17 17 17 18
7 3 7 7 6 6 6 7 7 7 11 11 8 13 15 19 21 22 20 16 18 20 20 20 20 19 16 13 12 12 12 10 12 11 12 13 14 15 15 19 17 19 21
9 8 8 7 7 6 7 7 7 9 11 10 10 9 13 16 18 20 19 18 17 18 19 20 23 21 20 18 18 16 15 12 12 13 15 16 16 19 16 16 16 18 19
8 7 10 7 7 8 7 7 7 10 13 10 10 13 17 16 17 16 17 17 17 17 18 20 22 20 18 18 19 18 18 18 18 18 14 12 15 15 16 17 17 19 21
8 6 7 7 8 8 8 7 8 12 13 10 8 11 16 17 16 15 14 15 15 15 17 20 20 19 17 17 18 18 18 19 18 18 16 16 14 17 19 19 18 16 16
8 8 8 9 9 10 8 8 10 13 12 12 9 9 11 16 14 14 13 15 15 14 16 20 18 17 16 18 20 20 20 20 18 19 19 22 21 19 19 15 13 13 13
9 9 9 9 9 9 8 10 12 12 12 11 9 10 12 14 15 13 16 16 15 15 14 17 18 17 18 19 19 17 17 17 17 16 14 14 12 10 8 9 9 9 10
10 10 9 9 10 9 9 10 11 12 12 11 8 9 11 14 16 16 16 16 16 15 14 14 16 15 15 18 19 18 19 18 16 14 11 10 10 11 10 9 9 9 8
11 11 10 11 11 9 9 10 11 11 12 10 7 8 11 14 15 15 16 17 19 17 16 15 14 14 12 14 14 15 18 18 17 14 14 12 11 8 10 9 8 8 8
Wind_Direction
357 341 328 319 339 9 19 23 27 8 357 1 116 175 179 197 233 245 240 252 265 272 273 275 278 280 284 282 281 284 284 280 282 280 278 289 283 291 293 283 281 279 286
341 332 330 337 351 354 5 20 41 50 77 85 101 138 90 214 256 271 275 271 275 275 277 279 285 285 282 283 286 285 284 282 282 286 290 293 284 286 282 284 276 263 282
349 342 341 354 355 355 359 37 67 77 82 85 84 89 345 300 296 297 296 292 286 284 286 287 288 285 286 292 294 293 288 288 287 284 294 284 291 295 294 291 284 286 280
340 346 341 348 346 351 13 46 81 93 107 110 116 115 297 311 313 307 298 295 293 292 289 285 290 290 288 289 289 289 288 274 271 276 284 289 290 286 290 289 285 280 287
353 336 320 326 325 349 41 127 150 135 131 126 142 291 325 330 283 299 296 297 294 291 286 293 298 277 295 295 296 293 293 291 292 295 296 297 298 295 297 282 283 282 290
338 330 306 300 288 312 228 187 184 188 145 291 336 319 302 297 306 303 298 306 300 299 299 297 299 311 279 302 302 306 307 304 301 297 295 296 302 309 275 272 249 292 306
331 330 294 275 282 285 225 210 191 188 254 276 311 291 292 297 300 302 309 313 309 298 303 305 303 302 313 320 319 312 299 298 302 302 295 295 299 301 301 289 283 274 276
319 311 295 283 275 257 227 223 206 256 298 264 292 291 299 302 307 312 322 327 308 303 305 315 333 334 311 332 334 319 313 310 304 303 300 296 292 288 289 283 278 274 271
316 297 284 262 276 227 227 224 257 277 268 265 287 307 319 304 316 319 324 330 313 327 332 324 336 317 313 333 334 322 328 330 321 314 312 301 293 292 289 290 268 246 260
318 297 283 271 262 222 217 225 213 221 216 106 313 322 317 319 323 330 336 339 331 341 343 337 320 322 328 331 337 333 337 334 328 331 338 349 340 320 351 359 193 198 244
321 300 269 264 250 223 130 87 337 166 313 335 30 8 346 336 336 341 348 0 355 354 345 329 328 327 334 333 346 339 334 345 9 33 21 6 5 353 269 229 241 245 260
313 288 288 272 198 90 79 59 308 52 61 55 10 355 342 344 340 359 10 5 5 0 343 336 332 332 334 338 350 353 1 26 32 29 13 4 345 333 303 280 269 262 260
291 284 236 349 153 92 86 54 49 37 17 0 352 348 345 357 359 3 14 20 8 358 343 339 341 346 349 353 357 10 28 31 35 20 5 2 24 54 67 67 57 344 6
304 255 151 9 189 135 129 108 86 39 5 12 16 10 0 7 8 13 9 2 5 3 1 3 10 18 21 25 41 17 39 28 31 9 5 32 41 51 53 70 91 91 84
347 247 134 121 142 147 125 121 62 31 36 39 28 24 23 16 15 17 7 360 6 9 27 35 36 38 34 39 38 34 60 31 25 7 54 46 46 46 70 76 84 89 79
10 140 124 122 111 108 103 57 46 46 26 20 23 46 23 25 27 17 11 28 39 40 50 46 47 40 36 35 41 54 65 51 50 71 58 49 47 78 81 72 96 96 91
78 92 82 77 123 98 69 45 15 31 39 34 41 52 49 39 34 38 47 50 53 55 58 60 52 45 46 47 49 56 57 64 75 68 53 38 71 79 62 82 80 96 90
77 79 72 81 86 72 47 51 72 64 59 49 58 64 59 58 57 63 62 56 56 57 55 51 52 53 44 49 51 52 58 68 72 56 44 53 74 73 93 84 88 85 91
100 90 92 79 74 60 56 68 70 63 65 67 67 55 58 52 57 62 68 64 59 55 51 47 42 36 36 43 48 56 68 71 59 50 53 73 73 87 96 88 89 94 94
84 92 89 66 46 54 67 70 62 65 77 79 81 66 66 55 56 59 58 56 51 48 47 38 36 40 49 61 60 66 70 66 60 71 83 75 82 87 84 89 94 96 94
110 95 72 52 64 70 75 75 69 90 87 93 86 76 68 51 56 55 54 53 47 45 48 41 41 53 59 63 64 71 73 69 75 77 76 80 79 80 86 89 90 93 94
98 80 67 74 78 80 82 77 81 102 91 104 84 66 59 55 56 54 51 50 51 49 52 47 50 58 64 61 75 70 78 74 75 67 72 69 81 87 94 93 93 88 89
88 80 77 75 74 73 72 75 94 104 98 112 86 68 54 52 47 48 61 50 52 59 54 49 60 63 66 76 70 68 68 67 63 57 74 76 83 88 85 80 76 84 89
85 82 83 85 86 78 71 77 97 105 104 110 90 72 63 57 53 63 61 56 60 62 58 56 64 69 77 78 63 50 56 64 64 67 70 71 70 65 57 64 77 77 79
86 82 80 83 79 75 70 79 105 110 109 115 90 76 66 63 69 73 62 63 64 64 65 67 68 73 86 75 72 66 62 61 63 68 57 59 60 61 69 59 70 73 76
87 82 80 82 77 73 65 81 104 111 110 122 90 94 74 76 68 63 65 52 58 63 68 70 70 67 88 78 65 57 50 47 50 51 47 37 29 38 53 68 62 58 71